Grand Junction, CO

1:00 AM MST on February 18, 2018 (GMT -0700)
Walker

Weather History for KGJT - December, 2011

Change the Weather History Date:

Friday, December 16, 2011

  Actual Average Record
Temperature  
Mean Temperature 29 °F 28 °F  
Max Temperature 38 °F 38 °F 57 °F (2016)
Min Temperature 20 °F 18 °F -10 °F (1919)
Degree Days  
Heating Degree Days 36 37  
Month to date heating degree days 562 563  
Since 1 July heating degree days 1684 1791  
Cooling Degree Days 0 0  
Month to date cooling degree days 0 0  
Year to date cooling degree days 1222 1125  
Moisture  
Dew Point 19 °F    
Average Humidity 68    
Maximum Humidity 88    
Minimum Humidity 48    
Precipitation  
Precipitation 0.00 in 0.02 in 0.52 in (1938)
Month to date precipitation 0.23 0.31  
Year to date precipitation 9.64 9.14  
Snow  
Snow 0.00 in 0.10 in 5.00 in (1938)
Month to date snowfall 0.5 2.1  
Since 1 July snowfall 0.5 4.6  
Snow Depth 0.00 in    
Sea Level Pressure  
Sea Level Pressure 30.48 in    
Wind  
Wind Speed 9 mph (SE)    
Max Wind Speed 15 mph    
Max Gust Speed 17 mph    
Visibility 10 miles    
Events      
T = Trace of Precipitation, MM = Missing Value Source: NWS Daily Summary

Daily Weather History Graph

Daily Weather History Graph

Search for Another Location

Airport or City:

Trip Planner

Search our weather history database for the weather conditions in past years. The results will help you decide how hot, cold, wet, or windy it might be!

Date:

Astronomy

Dec. 16, 2011 Rise Set
Actual Time 7:26 AM MST 4:52 PM MST
Civil Twilight 6:56 AM MST 5:22 PM MST
Nautical Twilight 6:23 AM MST 5:56 PM MST
Astronomical Twilight 5:50 AM MST 6:28 PM MST
Moon 11:26 PM MST (12/16) 11:16 AM MST (12/16)
Length of Visible Light 10h 26m
Length of Day
9h 25m
Waning Gibbous, 64% of the Moon is Illuminated
Dec 16
Waning Gibbous
Dec 17
Last Quarter
Dec 24
New
Dec 31
First Quarter
Jan 9
Full

Hourly Weather History & Observations

Time (MST) Temp. Windchill Dew Point Humidity Pressure Visibility Wind Dir Wind Speed Gust Speed Precip Events Conditions
12:53 AM 24.1 °F 14.4 °F 19.9 °F 84% 30.38 in 10.0 mi ESE 9.2 mph - N/A   Clear
1:53 AM 23.0 °F 14.7 °F 19.0 °F 85% 30.39 in 10.0 mi SE 6.9 mph - N/A   Clear
2:53 AM 23.0 °F 13.1 °F 19.4 °F 86% 30.34 in 10.0 mi SE 9.2 mph - N/A   Clear
3:53 AM 23.0 °F 10.1 °F 18.0 °F 81% 30.40 in 10.0 mi SE 15.0 mph - N/A   Clear
4:53 AM 21.9 °F 11.7 °F 17.1 °F 82% 30.43 in 10.0 mi SE 9.2 mph - N/A   Clear
5:53 AM 21.0 °F 9.9 °F 16.0 °F 81% 30.45 in 10.0 mi SE 10.4 mph - N/A   Clear
6:53 AM 21.0 °F 12.4 °F 17.1 °F 85% 30.47 in 10.0 mi SSE 6.9 mph - N/A   Clear
7:53 AM 19.9 °F 13.4 °F 16.0 °F 85% 30.50 in 10.0 mi East 4.6 mph - N/A   Clear
8:53 AM 26.1 °F 16.2 °F 18.0 °F 71% 30.49 in 10.0 mi SSE 10.4 mph - N/A   Clear
9:53 AM 28.0 °F 20.0 °F 18.0 °F 66% 30.51 in 10.0 mi SSE 8.1 mph - N/A   Clear
10:53 AM 30.0 °F 21.1 °F 19.0 °F 64% 30.50 in 10.0 mi South 10.4 mph - N/A   Clear
11:53 AM 33.1 °F 25.5 °F 19.9 °F 59% 30.50 in 10.0 mi SE 9.2 mph - N/A   Clear
12:53 PM 35.1 °F 27.9 °F 19.9 °F 54% 30.47 in 10.0 mi SSE 9.2 mph - N/A   Clear
1:53 PM 37.0 °F 31.0 °F 19.9 °F 50% 30.46 in 10.0 mi ESE 8.1 mph - N/A   Clear
2:53 PM 37.9 °F 34.4 °F 19.0 °F 47% 30.45 in 10.0 mi ESE 4.6 mph - N/A   Clear
3:53 PM 37.0 °F 31.6 °F 19.9 °F 50% 30.48 in 10.0 mi SE 6.9 mph - N/A   Clear
4:53 PM 32.0 °F 26.4 °F 23.0 °F 69% 30.50 in 10.0 mi ESE 5.8 mph - N/A   Clear
5:53 PM 30.0 °F 23.2 °F 23.0 °F 75% 30.52 in 10.0 mi ESE 6.9 mph - N/A   Clear
6:53 PM 30.0 °F 21.1 °F 21.0 °F 69% 30.53 in 10.0 mi SE 10.4 mph - N/A   Clear
7:53 PM 28.0 °F 18.6 °F 21.0 °F 75% 30.55 in 10.0 mi ESE 10.4 mph - N/A   Clear
8:53 PM 27.0 °F 16.7 °F 19.9 °F 75% 30.54 in 10.0 mi ESE 11.5 mph - N/A   Clear
9:53 PM 27.0 °F 16.7 °F 19.0 °F 72% 30.54 in 10.0 mi ESE 11.5 mph - N/A   Clear
10:53 PM 25.0 °F 14.8 °F 19.0 °F 78% 30.55 in 10.0 mi ESE 10.4 mph - N/A   Clear
11:53 PM 25.0 °F 14.8 °F 19.0 °F 78% 30.56 in 10.0 mi East 10.4 mph - N/A   Clear